[Show "Revision History"] [Show "General Page Infos"] [Show "Page hits and edits"]

Revision History

Showing page edit history entries from 1 to 80 out of 80 entries total. (5 | 10 | 25 | 50 | 100 | 200 items per page)

# Date Size Editor Comment Action
80 2012-03-14 16:05:42 38974 to previous JukkaZitting Finishing touches view
79 2012-03-14 13:11:12 39651 to previous JukkaZitting Finalize the report view
78 2012-03-14 12:32:11 38459 to previous JukkaZitting Improved preamble, fix indenting in S4 report view
77 2012-03-14 11:22:30 37367 to previous jbonofre   view
76 2012-03-14 10:32:59 36569 to previous antelder   view
75 2012-03-13 16:37:29 36565 to previous DougCutting Etch report seems accurate: signing off. view
74 2012-03-13 13:54:39 36557 to previous GregStein   view
73 2012-03-12 23:42:11 36549 to previous JukkaZitting Start drafting the generic part of our board report view
72 2012-03-12 21:30:42 34664 to previous JukkaZitting Categorize Wave view
71 2012-03-12 21:24:29 34672 to previous JukkaZitting Note incubating releases since last report. Reflow Kalumet and Wave reports. Add preamble to MRUnit report. view
70 2012-03-12 20:16:51 33890 to previous JukkaZitting Categorize MRUnit and OpenOffice view
69 2012-03-12 19:53:36 33890 to previous JukkaZitting Categorize Flume, Kalumet and Kato view
68 2012-03-12 13:21:31 33892 to previous JukkaZitting Highlight some notable items from podling reports view
67 2012-03-10 16:26:46 33450 to previous YuriZ Adds Wave report view
66 2012-03-10 14:51:14 32528 to previous JukkaZitting Isis seems to still fall in the diversity bucket view
65 2012-03-10 14:28:27 32528 to previous JukkaZitting Sign off the Cordova report view
64 2012-03-10 14:23:35 32521 to previous DanielShahaf S4 -> low diversity view
63 2012-03-10 14:17:56 32521 to previous JukkaZitting Drop duplicate prefix view
62 2012-03-10 12:36:46 33400 to previous JukkaZitting First pass at a podling report overview view
61 2012-03-10 11:34:18 31603 to previous JukkaZitting Unify formatting of podling reports. No content changes. view
60 2012-03-09 05:31:36 30853 to previous TomWhite2   view
59 2012-03-08 20:23:19 30826 to previous HyrumWright Sign off on Bloodhound report view
58 2012-03-07 22:29:24 30818 to previous monteith Add Kato report. view
57 2012-03-07 17:18:02 29941 to previous GregReddin Signoff Flex Report view
56 2012-03-07 17:11:03 29932 to previous PatrickHunt   view
55 2012-03-07 17:10:20 28571 to previous JoeSchaefer sign off on aoo report view
54 2012-03-07 17:07:13 28565 to previous PatrickHunt   view
53 2012-03-07 09:00:52 28564 to previous OlivierLamy olamy signed sqoop report view
52 2012-03-07 06:28:37 28558 to previous AlexHarui   view
51 2012-03-07 05:59:34 28302 to previous PatrickHunt   view
50 2012-03-07 05:47:02 28296 to previous GianugoRabellino   view
49 2012-03-07 05:39:18 28288 to previous RomanShaposhnik   view
48 2012-03-07 05:28:21 26739 to previous PatrickHunt   view
47 2012-03-06 23:22:15 26719 to previous JukkaZitting Resolve edit conflict view
46 2012-03-06 21:34:38 26895 to previous AlexHarui   view
45 2012-03-06 19:11:59 27057 to previous JimJagielski   view
44 2012-03-06 18:54:39 27052 to previous ArvindPrabhakar   view
43 2012-03-06 17:52:32 24137 to previous brianleroux   view
42 2012-03-06 14:51:58 23255 to previous KevanMiller   view
41 2012-03-06 14:22:19 23248 to previous GaryMartin Mention of initial Bloodhound code commits as this work is relevant to the current goals view
40 2012-03-06 09:48:11 23066 to previous BertrandDelacretaz add DeviceMap report view
39 2012-03-06 06:47:01 22437 to previous BrockNoland   view
38 2012-03-06 01:58:03 22046 to previous AshutoshChauhan   view
37 2012-03-05 22:13:34 21660 to previous RossGardler sign of a couple projects view
36 2012-03-05 22:09:07 21456 to previous robweir   view
35 2012-03-05 21:46:30 21253 to previous robweir   view
34 2012-03-05 19:54:58 20841 to previous HyrumWright Add proposed Bloodhound report view
33 2012-03-05 17:00:46 20001 to previous AteDouma   view
32 2012-03-05 13:34:33 19997 to previous BertrandDelacretaz   view
31 2012-03-05 11:45:21 19984 to previous AteDouma   view
30 2012-03-05 09:24:00 17948 to previous michaelfitzner   view
29 2012-03-03 15:30:53 16905 to previous AlanGates   view
28 2012-03-03 01:31:44 16886 to previous AshutoshChauhan   view
27 2012-03-02 15:45:32 16249 to previous AlanCabrera   view
26 2012-03-02 14:08:58 16225 to previous JukkaZitting Restore parts of OpenOffice report that got lost in page revision 9 view
25 2012-03-02 13:38:49 15273 to previous edwardyoon Add more report items to Hama view
24 2012-03-02 13:33:59 14895 to previous JukkaZitting Sign off the ManifoldCF report view
23 2012-03-02 11:55:36 14888 to previous SimoneTripodi   view
22 2012-03-02 01:36:55 14062 to previous David Fisher   view
21 2012-03-01 00:31:41 14058 to previous DavidCrossley add new podling: Syncope view
20 2012-02-29 15:57:18 13973 to previous BillieRinaldi   view
19 2012-02-29 08:02:00 13301 to previous OlivierLamy   view
18 2012-02-29 06:49:27 13293 to previous jbonofre   view
17 2012-02-28 10:34:53 12457 to previous SebastianWagner OpenMeetings March Report seems to be accidently deleted by a later editor "KarlWright" at 2012-02-26 22:32:29 view
16 2012-02-27 23:38:44 10672 to previous struberg   view
15 2012-02-27 16:03:44 10664 to previous TommasoTeofili   view
14 2012-02-27 15:57:32 10656 to previous thomasjungblut   view
13 2012-02-27 15:32:29 10106 to previous TommasoTeofili   view
12 2012-02-27 13:23:40 10098 to previous DanHaywood   view
11 2012-02-27 00:30:02 8415 to previous robweir   view
10 2012-02-26 22:34:09 8381 to previous KarlWright   view
9 2012-02-26 22:32:29 6826 to previous KarlWright   view
8 2012-02-25 18:01:51 8678 to previous StefanBodewig   view
7 2012-02-25 09:27:59 8285 to previous SebastianWagner   view
6 2012-02-24 11:39:33 8259 to previous RuiSilva   view
5 2012-02-24 10:50:19 6151 to previous SebastianWagner   view
4 2012-02-24 07:58:15 4445 to previous jsc add first draft report for OpenOffice view
3 2012-02-23 08:44:39 2813 to previous JukkaZitting Gora has graduated view
2 2012-02-21 13:15:42 2895 to previous JukkaZitting Add podlings based on ReportingSchedule view
1 2012-02-21 12:59:32 1181 JukkaZitting Copy report template view